User: anonymous   Login
Location: Oshawa
(43.9000°N, 78.8670°W)
Time: 14:54:14
(UTC-05:00)
Language:

Cosmos 2333 Rocket - Orbit

View from above orbital plane
View from above orbital plane
View from above satellite
View from above satellite

Ground track
Ground track

The orbit data is extracted from the following two-line orbital elements,

1 24298U 96051B   14351.02101603 -.00000077  00000-0 -15603-4 0  6232
2 24298 070.8550 186.9125 0013511 101.9616 060.6557 14.12452424942888
Epoch (UTC): 17 December 2014 00:30:15
Eccentricity: 0.0013511
inclination: 70.8550°
perigee height: 841 km
apogee height: 861 km
right ascension of ascending node: 186.9125°
argument of perigee: 101.9616°
revolutions per day: 14.12452424
mean anomaly at epoch: 60.6557°
orbit number at epoch: 94288

The dashed part of the orbit path shows where the satellite is in the earth's shadow,  

DLR